Tracking 33404 objects as of 6-Mar-2026
HD Live streaming from Space Station
objects crossing your sky now

HULIANWANG DIGUI-89

Track HULIANWANG DIGUI-89 now!
10-day predictions


NORAD ID: 65997
Int'l Code: 2025-231C
Perigee: 1,155.9 km
Apogee: 1,156.9 km
Inclination: 50.0 °
Period: 108.3 minutes
Semi major axis: 7527 km
RCS: Unknown
Launch date: October 16, 2025
Source: People's Republic of China (PRC)
Launch site: Wenchang Satellite Launch Center (WSC)
Your satellite tracking list
Your tracking list is empty




NASA's NSSDC Master Catalog

Two Line Element Set (TLE):
1 65997U 25231C   26065.31150323 -.00000074  00000-0  10882-3 0  9990
2 65997  49.9956 184.7266 0000643 194.2648 165.8206 13.29330009 19201
Source of the keplerian elements: AFSPC